| time (UTC) | temp F | wind direction | speed MPH | gust MPH | rain 1hr in | rain 24hr in | rain mn in | humidity % | barometer mb |
| 20260509071536 | 44 | 212 | 5.0 | 6.0 | 0.00 | 0.00 | 0.00 | 84 | 1024.5 |
| 20260509064606 | 46 | 180 | 2.0 | 4.0 | 0.00 | 0.00 | 0.00 | 80 | 1024.7 |
| 20260509063035 | 48 | 197 | 2.0 | 4.0 | 0.00 | 0.00 | 0.00 | 79 | 1024.7 |
| 20260509061534 | 49 | 173 | 1.0 | 4.0 | 0.00 | 0.00 | 0.00 | 77 | 1024.7 |
| 20260509054540 | 50 | 172 | 1.0 | 3.0 | 0.00 | 0.00 | 0.00 | 73 | 1024.7 |
| 20260509054534 | 51 | 142 | 2.0 | 4.0 | 0.00 | 0.00 | 0.00 | 73 | 1024.6 |
| 20260509051534 | 51 | 115 | 2.0 | 4.0 | 0.00 | 0.00 | 0.00 | 73 | 1024.5 |
| 20260509050111 | 50 | 324 | 2.0 | 7.0 | 0.00 | 0.00 | 0.00 | 73 | 1024.4 |
| 20260509044531 | 50 | 308 | 2.0 | 5.0 | 0.00 | 0.00 | 0.00 | 71 | 1024.3 |
| 20260509043031 | 52 | 308 | 0.0 | 3.0 | 0.00 | 0.00 | 0.00 | 67 | 1024.3 |
| 20260509041532 | 54 | 165 | 1.0 | 6.0 | 0.00 | 0.00 | 0.00 | 64 | 1024.1 |
| 20260509040034 | 54 | 298 | 1.0 | 9.0 | 0.00 | 0.00 | 0.00 | 63 | 1023.9 |
| 20260509034542 | 55 | 284 | 2.0 | 7.0 | 0.00 | 0.00 | 0.00 | 61 | 1023.8 |
| 20260509033143 | 56 | 272 | 2.0 | 11.0 | 0.00 | 0.00 | 0.00 | 60 | 1023.5 |
| 20260509024534 | 58 | 272 | 4.0 | 14.0 | 0.00 | 0.00 | 0.00 | 54 | 1023.2 |
| 20260509023034 | 59 | 257 | 6.0 | 16.0 | 0.00 | 0.00 | 0.00 | 51 | 1023.1 |
| 20260509021532 | 60 | 271 | 4.0 | 14.0 | 0.00 | 0.00 | 0.00 | 49 | 1023.0 |
| 20260509020036 | 61 | 251 | 7.0 | 17.0 | 0.00 | 0.00 | 0.00 | 47 | 1023.0 |
| 20260509014535 | 62 | 250 | 7.0 | 19.0 | 0.00 | 0.00 | 0.00 | 44 | 1023.0 |
| 20260509010153 | 64 | 241 | 7.0 | 15.0 | 0.00 | 0.00 | 0.00 | 40 | 1022.9 |
| 20260509004537 | 64 | 286 | 6.0 | 13.0 | 0.00 | 0.00 | 0.00 | 38 | 1022.8 |
| 20260509003106 | 65 | 301 | 5.0 | 16.0 | 0.00 | 0.00 | 0.00 | 38 | 1022.6 |
| 20260509001537 | 66 | 304 | 6.0 | 14.0 | 0.00 | 0.00 | 0.00 | 35 | 1022.2 |
| 20260508233032 | 67 | 271 | 6.0 | 19.0 | 0.00 | 0.00 | 0.00 | 33 | 1022.0 |
| 20260508230105 | 67 | 262 | 6.0 | 20.0 | 0.00 | 0.00 | 0.00 | 31 | 1021.8 |
| 20260508224608 | 67 | 296 | 6.0 | 13.0 | 0.00 | 0.00 | 0.00 | 30 | 1021.7 |
| 20260508223035 | 68 | 297 | 7.0 | 19.0 | 0.00 | 0.00 | 0.00 | 29 | 1021.7 |
| 20260508221533 | 68 | 271 | 6.0 | 17.0 | 0.00 | 0.00 | 0.00 | 28 | 1021.7 |
| 20260508220034 | 68 | 250 | 6.0 | 19.0 | 0.00 | 0.00 | 0.00 | 28 | 1021.7 |
| 20260508214535 | 68 | 258 | 7.0 | 19.0 | 0.00 | 0.00 | 0.00 | 27 | 1021.8 |
| 20260508213034 | 67 | 253 | 8.0 | 26.0 | 0.00 | 0.00 | 0.00 | 26 | 1021.8 |
| 20260508211618 | 67 | 244 | 10.0 | 28.0 | 0.00 | 0.00 | 0.00 | 26 | 1021.6 |
| 20260508211608 | 67 | 242 | 9.0 | 21.0 | 0.00 | 0.00 | 0.00 | 25 | 1021.6 |
| 20260508204535 | 67 | 228 | 10.0 | 23.0 | 0.00 | 0.00 | 0.00 | 27 | 1021.6 |
| 20260508203037 | 66 | 248 | 10.0 | 26.0 | 0.00 | 0.00 | 0.00 | 28 | 1021.4 |
| 20260508201544 | 65 | 258 | 9.0 | 24.0 | 0.00 | 0.00 | 0.00 | 28 | 1021.4 |
| 20260508200035 | 65 | 248 | 11.0 | 25.0 | 0.00 | 0.00 | 0.00 | 29 | 1021.3 |
| 20260508194535 | 64 | 232 | 14.0 | 27.0 | 0.00 | 0.00 | 0.00 | 28 | 1021.3 |
| 20260508193036 | 65 | 233 | 13.0 | 37.0 | 0.00 | 0.00 | 0.00 | 30 | 1021.2 |
| 20260508191535 | 66 | 224 | 12.0 | 25.0 | 0.00 | 0.00 | 0.00 | 32 | 1021.2 |
| 20260508190035 | 66 | 239 | 7.0 | 19.0 | 0.00 | 0.00 | 0.00 | 33 | 1021.3 |
| 20260508184535 | 65 | 237 | 5.0 | 14.0 | 0.00 | 0.00 | 0.00 | 35 | 1021.3 |
| 20260508183036 | 60 | 317 | 1.0 | 8.0 | 0.00 | 0.00 | 0.00 | 52 | 1021.2 |
| 20260508181538 | 56 | 61 | 1.0 | 6.0 | 0.00 | 0.00 | 0.00 | 63 | 1021.0 |
| 20260508180036 | 54 | 134 | 1.0 | 4.0 | 0.00 | 0.00 | 0.00 | 65 | 1021.1 |
| 20260508174535 | 54 | 171 | 1.0 | 4.0 | 0.00 | 0.00 | 0.00 | 64 | 1021.2 |
| 20260508173110 | 54 | 150 | 1.0 | 4.0 | 0.00 | 0.00 | 0.00 | 64 | 1020.8 |
| 20260508171536 | 53 | 147 | 3.0 | 6.0 | 0.00 | 0.00 | 0.00 | 64 | 1020.7 |
| 20260508163035 | 54 | 134 | 4.0 | 9.0 | 0.00 | 0.00 | 0.00 | 61 | 1020.6 |
| 20260508161532 | 56 | 72 | 5.0 | 14.0 | 0.00 | 0.00 | 0.00 | 56 | 1020.5 |
| 20260508160032 | 58 | 230 | 7.0 | 15.0 | 0.00 | 0.00 | 0.00 | 50 | 1020.3 |
| 20260508154607 | 58 | 226 | 3.0 | 13.0 | 0.00 | 0.00 | 0.00 | 55 | 1020.4 |
| 20260508153036 | 57 | 243 | 7.0 | 16.0 | 0.00 | 0.00 | 0.00 | 58 | 1020.3 |
| 20260508151537 | 57 | 246 | 8.0 | 17.0 | 0.00 | 0.00 | 0.00 | 61 | 1020.1 |
| 20260508150035 | 55 | 175 | 3.0 | 7.0 | 0.00 | 0.00 | 0.00 | 67 | 1020.0 |
| 20260508144531 | 52 | 173 | 3.0 | 7.0 | 0.00 | 0.00 | 0.00 | 72 | 1019.8 |
| 20260508143153 | 50 | 177 | 3.0 | 5.0 | 0.00 | 0.00 | 0.00 | 75 | 1019.6 |
| 20260508141534 | 48 | 189 | 2.0 | 5.0 | 0.00 | 0.00 | 0.00 | 76 | 1019.4 |
| 20260508140037 | 48 | 221 | 0.0 | 5.0 | 0.00 | 0.00 | 0.00 | 78 | 1019.3 |
| 20260508133035 | 46 | 176 | 2.0 | 4.0 | 0.00 | 0.00 | 0.00 | 79 | 1019.0 |
| 20260508131535 | 43 | 135 | 3.0 | 7.0 | 0.00 | 0.00 | 0.00 | 82 | 1018.7 |
| 20260508130037 | 42 | 152 | 1.0 | 5.0 | 0.00 | 0.00 | 0.00 | 81 | 1018.7 |
| 20260508124610 | 42 | 149 | 2.0 | 5.0 | 0.00 | 0.00 | 0.00 | 80 | 1018.7 |
| 20260508123033 | 42 | 158 | 3.0 | 6.0 | 0.00 | 0.00 | 0.00 | 80 | 1018.7 |
| 20260508121609 | 42 | 163 | 3.0 | 6.0 | 0.00 | 0.00 | 0.00 | 80 | 1018.6 |
| 20260508120036 | 42 | 160 | 3.0 | 6.0 | 0.00 | 0.00 | 0.00 | 80 | 1018.6 |
| 20260508114536 | 41 | 167 | 4.0 | 6.0 | 0.00 | 0.00 | 0.00 | 80 | 1018.5 |
| 20260508113036 | 41 | 146 | 3.0 | 5.0 | 0.00 | 0.00 | 0.00 | 82 | 1018.2 |
| 20260508110107 | 41 | 163 | 2.0 | 5.0 | 0.00 | 0.00 | 0.00 | 83 | 1018.2 |
| 20260508104534 | 40 | 156 | 3.0 | 6.0 | 0.00 | 0.00 | 0.00 | 85 | 1018.1 |
| 20260508103041 | 39 | 168 | 2.0 | 5.0 | 0.00 | 0.00 | 0.00 | 86 | 1018.1 |
| 20260508103036 | 38 | 161 | 1.0 | 4.0 | 0.00 | 0.00 | 0.00 | 86 | 1018.1 |
| 20260508100154 | 38 | 171 | 3.0 | 5.0 | 0.00 | 0.00 | 0.00 | 85 | 1018.1 |
| 20260508094533 | 37 | 159 | 3.0 | 6.0 | 0.00 | 0.00 | 0.00 | 83 | 1018.1 |
| 20260508091535 | 38 | 172 | 1.0 | 3.0 | 0.00 | 0.00 | 0.00 | 81 | 1018.1 |
| 20260508090036 | 39 | 193 | 0.0 | 4.0 | 0.00 | 0.00 | 0.00 | 81 | 1018.1 |
| 20260508084534 | 39 | 166 | 2.0 | 5.0 | 0.00 | 0.00 | 0.00 | 80 | 1018.1 |
| 20260508081535 | 40 | 162 | 2.0 | 4.0 | 0.00 | 0.00 | 0.00 | 75 | 1018.2 |
| 20260508080030 | 41 | 165 | 2.0 | 3.0 | 0.00 | 0.00 | 0.00 | 72 | 1018.2 |
| 20260508074537 | 43 | 110 | 2.0 | 4.0 | 0.00 | 0.00 | 0.00 | 69 | 1018.3 |
| 20260508073038 | 43 | 145 | 3.0 | 5.0 | 0.00 | 0.00 | 0.00 | 69 | 1018.3 |